This is the latest recevied weather packets stored in our database for station/object SR7U-1. If no packets are shown the sender has not sent any weather packets the latest 10 day(s).
| Time | Temp. | Humidity | Pressure | Rain* | Wind** | Luminosity | Snow |
|---|---|---|---|---|---|---|---|
| 1777931310 | 14.44° C | 59% | 1012.4 hPa | - | - | - | - |
| 1777930420 | 14.44° C | 55% | 1012.5 hPa | - | - | - | - |
| 1777929600 | 15° C | 51% | 1012.5 hPa | - | - | - | - |
| 1777928840 | 15° C | 51% | 1012.5 hPa | - | - | - | - |
| 1777928053 | 15.56° C | 54% | 1012.5 hPa | - | - | - | - |
| 1777927245 | 16.11° C | 47% | 1012.5 hPa | - | - | - | - |
| 1777926370 | 15.56° C | 46% | 1012.5 hPa | - | - | - | - |
| 1777925535 | 15° C | 52% | 1012.4 hPa | - | - | - | - |
| 1777924695 | 15.56° C | 45% | 1012.4 hPa | - | - | - | - |
| 1777923965 | 15° C | 56% | 1011.9 hPa | - | - | - | - |
| 1777923230 | 15.56° C | 51% | 1012.2 hPa | - | - | - | - |
| 1777922450 | 15.56° C | 50% | 1012.3 hPa | - | - | - | - |
| 1777921610 | 15.56° C | 54% | 1012.2 hPa | - | - | - | - |
| 1777920850 | 16.11° C | 52% | 1012.2 hPa | - | - | - | - |
| 1777920100 | 17.22° C | 47% | 1012 hPa | - | - | - | - |
| 1777919370 | 18.33° C | 40% | 1012.1 hPa | - | - | - | - |
| 1777918650 | 18.89° C | 38% | 1011.8 hPa | - | - | - | - |
| 1777917850 | 19.44° C | 37% | 1011.8 hPa | - | - | - | - |
| 1777916985 | 20° C | 36% | 1011.7 hPa | - | - | - | - |
| 1777916229 | 20.56° C | 37% | 1011.6 hPa | - | - | - | - |
| 1777915465 | 22.22° C | 33% | 1011.6 hPa | - | - | - | - |
| 1777914592 | 23.33° C | 30% | 1011.7 hPa | - | - | - | - |
| 1777913785 | 24.44° C | 26% | 1011.6 hPa | - | - | - | - |
| 1777912920 | 25.56° C | 24% | 1011.7 hPa | - | - | - | - |
| 1777912087 | 25° C | 23% | 1011.7 hPa | - | - | - | - |
* Rain since midnight (hover to see other rain measurements)
** Current wind speed in m/s (hover to see current wind gust speed)